Vertical_Velocity
1 2 1 2 1 1 2 1 2 2 0 -0 -0 0 0 -0 -1 -2 -2 -1 1 -2
-0 0 2 2 1 1 2 2 2 1 -0 1 0 -0 1 0 -2 -2 -1 -0 -1 -1
0 1 1 1 1 2 2 1 1 1 1 0 -0 1 0 -1 -0 -1 -2 -1 -0 -5
1 -0 1 1 1 2 1 1 1 1 1 -0 0 0 0 -0 -0 -0 -0 -3 -2 -3
2 2 1 1 1 1 1 0 0 0 -0 -1 -1 -1 0 -1 0 0 -2 -1 -2 -2
2 1 1 1 1 1 0 -0 -0 -0 0 -1 -1 -2 -1 1 0 -2 -3 -1 -2 -1
2 1 1 2 2 -0 -0 -0 0 0 -1 -1 -1 -1 -2 -2 -1 -0 -3 -4 -3 -3
1 1 3 2 1 -1 0 1 -0 0 1 -0 -1 -2 -3 -0 2 -1 0 -0 -3 -2
1 3 3 1 -0 1 0 0 1 0 -1 -1 -1 -2 -1 -2 1 0 -1 1 -0 -1
3 1 1 2 1 -0 2 1 -0 -1 -1 -2 -2 -0 -1 -2 0 -1 -2 -1 -4 -2
1 1 1 1 1 2 1 -1 -2 -0 0 -2 1 -0 -1 1 -2 -1 -2 -2 -8 -6
0 1 2 1 1 1 -1 -2 -1 -1 -1 3 -3 -0 -2 -1 -0 -0 -2 -4 0 -6
1 2 2 1 -1 -2 -1 0 -0 -0 2 -0 2 -0 -1 1 -2 -6 3 5 -2 0
2 1 0 -1 -0 -0 0 2 3 -1 -1 -1 -1 1 -3 -5 -2 -3 1 0 -1 -1
Height
5717 5719 5720 5720 5720 5720 5720 5717 5716 5713 5711 5708 5704 5700 5696 5691 5687 5682 5677 5671 5665 5658
5710 5712 5712 5712 5712 5712 5711 5708 5706 5703 5700 5698 5694 5689 5685 5681 5676 5670 5664 5657 5650 5643
5703 5704 5704 5703 5703 5703 5701 5699 5697 5693 5690 5687 5682 5678 5674 5669 5663 5657 5650 5643 5636 5627
5695 5696 5695 5695 5695 5694 5692 5690 5687 5683 5680 5676 5671 5667 5662 5656 5649 5643 5635 5627 5620 5611
5687 5687 5688 5687 5686 5685 5683 5680 5677 5673 5669 5665 5661 5655 5649 5642 5636 5629 5621 5612 5604 5594
5679 5680 5680 5680 5678 5676 5673 5671 5667 5663 5659 5654 5649 5643 5636 5630 5622 5614 5605 5596 5587 5578
5671 5672 5672 5671 5669 5667 5664 5661 5657 5653 5648 5643 5637 5630 5623 5616 5608 5599 5589 5579 5571 5562
5664 5664 5664 5663 5661 5658 5655 5652 5648 5643 5637 5631 5624 5617 5610 5602 5593 5584 5574 5565 5555 5544
5656 5657 5657 5655 5652 5649 5646 5642 5636 5631 5625 5618 5611 5604 5596 5587 5579 5569 5560 5550 5538 5527
5650 5650 5648 5646 5644 5641 5636 5631 5625 5619 5613 5606 5598 5590 5582 5573 5564 5554 5544 5533 5522 5510
5643 5642 5640 5638 5635 5630 5625 5620 5614 5607 5600 5593 5585 5577 5569 5559 5549 5539 5528 5517 5503 5490
5635 5634 5632 5629 5624 5620 5614 5609 5602 5595 5588 5580 5572 5563 5554 5545 5536 5525 5513 5498 5483 5468
5628 5626 5623 5619 5614 5609 5603 5597 5590 5583 5576 5568 5560 5550 5541 5531 5521 5510 5497 5481 5463 5446
5620 5617 5613 5609 5604 5599 5593 5586 5579 5571 5564 5555 5547 5538 5528 5516 5504 5490 5477 5460 5442 5424